Index of /20260417/WXO-DD/model_gdps/15km/00/041
Name Last modified Size Description
Parent Directory -
20260417T00Z_MSC_GDPS_AirTemp_AGL-120m_LatLon0.15_PT041H.grib2 2026-04-17 03:57 910K
20260417T00Z_MSC_GDPS_AirTemp_AGL-2m_LatLon0.15_PT041H.grib2 2026-04-17 03:57 1.0M
20260417T00Z_MSC_GDPS_AirTemp_AGL-40m_LatLon0.15_PT041H.grib2 2026-04-17 03:57 932K
20260417T00Z_MSC_GDPS_AirTemp_AGL-80m_LatLon0.15_PT041H.grib2 2026-04-17 03:57 919K
20260417T00Z_MSC_GDPS_Albedo_Sfc_LatLon0.15_PT041H.grib2 2026-04-17 03:57 249K
20260417T00Z_MSC_GDPS_ConvectivePrecip-Accum_Sfc_LatLon0.15_PT041H.grib2 2026-04-17 03:57 2.8M
20260417T00Z_MSC_GDPS_DewPointDepression_AGL-2m_LatLon0.15_PT041H.grib2 2026-04-17 03:57 755K
20260417T00Z_MSC_GDPS_DewPoint_AGL-2m_LatLon0.15_PT041H.grib2 2026-04-17 03:57 614K
20260417T00Z_MSC_GDPS_DownwardLongwaveRadiationFlux-Accum_Sfc_LatLon0.15_PT041H.grib2 2026-04-17 03:57 751K
20260417T00Z_MSC_GDPS_DownwardShortwaveRadiationFlux-Accum_Sfc_LatLon0.15_PT041H.grib2 2026-04-17 03:57 1.0M
20260417T00Z_MSC_GDPS_FreezingRain-Accum1h_Sfc_LatLon0.15_PT041H.grib2 2026-04-17 03:57 39K
20260417T00Z_MSC_GDPS_FreezingRain-Accum_Sfc_LatLon0.15_PT041H.grib2 2026-04-17 03:57 213K
20260417T00Z_MSC_GDPS_IcePellets-Accum1h_Sfc_LatLon0.15_PT041H.grib2 2026-04-17 03:57 21K
20260417T00Z_MSC_GDPS_IcePellets-Accum_Sfc_LatLon0.15_PT041H.grib2 2026-04-17 03:57 90K
20260417T00Z_MSC_GDPS_LatentHeatNetFlux_Sfc_LatLon0.15_PT041H.grib2 2026-04-17 03:57 506K
20260417T00Z_MSC_GDPS_NetLongwaveRadiationFlux-Accum_Sfc_LatLon0.15_PT041H.grib2 2026-04-17 03:57 1.1M
20260417T00Z_MSC_GDPS_NetShortwaveRadiationFlux-Accum_Sfc_LatLon0.15_PT041H.grib2 2026-04-17 03:57 1.0M
20260417T00Z_MSC_GDPS_O3MixingRatio_LatLon0.15_PT041H.grib2 2026-04-17 04:49 2.0M
20260417T00Z_MSC_GDPS_O3_EAtm_LatLon0.15_PT041H.grib2 2026-04-17 04:49 2.1M
20260417T00Z_MSC_GDPS_PlanetaryBoundaryLayerHeight_Sfc_LatLon0.15_PT041H.grib2 2026-04-17 03:57 2.4M
20260417T00Z_MSC_GDPS_Precip-Accum1h_Sfc_LatLon0.15_PT041H.grib2 2026-04-17 03:57 3.2M
20260417T00Z_MSC_GDPS_Precip-Accum_Sfc_LatLon0.15_PT041H.grib2 2026-04-17 03:57 4.8M
20260417T00Z_MSC_GDPS_PrecipRate_Sfc_LatLon0.15_PT041H.grib2 2026-04-17 03:57 3.0M
20260417T00Z_MSC_GDPS_Pressure_MSL_LatLon0.15_PT041H.grib2 2026-04-17 03:57 724K
20260417T00Z_MSC_GDPS_Pressure_Sfc_LatLon0.15_PT041H.grib2 2026-04-17 03:57 1.1M
20260417T00Z_MSC_GDPS_RadiativeTemp_Sfc_LatLon0.15_PT041H.grib2 2026-04-17 03:57 669K
20260417T00Z_MSC_GDPS_Rain-Accum1h_Sfc_LatLon0.15_PT041H.grib2 2026-04-17 03:57 1.6M
20260417T00Z_MSC_GDPS_Rain-Accum_Sfc_LatLon0.15_PT041H.grib2 2026-04-17 03:57 3.5M
20260417T00Z_MSC_GDPS_RelativeHumidity_AGL-2m_LatLon0.15_PT041H.grib2 2026-04-17 03:57 1.0M
20260417T00Z_MSC_GDPS_Runoff-Accum_Sfc_LatLon0.15_PT041H.grib2 2026-04-17 03:57 95K
20260417T00Z_MSC_GDPS_SensibleHeatNetFlux_Sfc_LatLon0.15_PT041H.grib2 2026-04-17 03:57 458K
20260417T00Z_MSC_GDPS_Snow-Accum1h_Sfc_LatLon0.15_PT041H.grib2 2026-04-17 03:57 1.0M
20260417T00Z_MSC_GDPS_Snow-Accum_Sfc_LatLon0.15_PT041H.grib2 2026-04-17 03:57 2.0M
20260417T00Z_MSC_GDPS_SnowDepth_Sfc_LatLon0.15_PT041H.grib2 2026-04-17 03:57 1.8M
20260417T00Z_MSC_GDPS_SoilTemp_DBS-0to10cm_LatLon0.15_PT041H.grib2 2026-04-17 03:57 502K
20260417T00Z_MSC_GDPS_SoilTemp_Sfc_LatLon0.15_PT041H.grib2 2026-04-17 03:57 582K
20260417T00Z_MSC_GDPS_SoilVolumetricWaterContent_DBS-0to10cm_LatLon0.15_PT041H.grib2 2026-04-17 03:57 553K
20260417T00Z_MSC_GDPS_SoilVolumetricWaterContent_DBS-0to1cm_LatLon0.15_PT041H.grib2 2026-04-17 03:57 647K
20260417T00Z_MSC_GDPS_SpecificHumidity_AGL-120m_LatLon0.15_PT041H.grib2 2026-04-17 03:57 1.1M
20260417T00Z_MSC_GDPS_SpecificHumidity_AGL-2m_LatLon0.15_PT041H.grib2 2026-04-17 03:57 1.2M
20260417T00Z_MSC_GDPS_SpecificHumidity_AGL-40m_LatLon0.15_PT041H.grib2 2026-04-17 03:57 1.1M
20260417T00Z_MSC_GDPS_SpecificHumidity_AGL-80m_LatLon0.15_PT041H.grib2 2026-04-17 03:57 1.1M
20260417T00Z_MSC_GDPS_SpecificHumidity_Sfc_LatLon0.15_PT041H.grib2 2026-04-17 03:57 661K
20260417T00Z_MSC_GDPS_TotalCloudCover_Sfc_LatLon0.15_PT041H.grib2 2026-04-17 03:57 819K
20260417T00Z_MSC_GDPS_UVIndex-ClearSky_Sfc_LatLon0.15_PT041H.grib2 2026-04-17 04:49 1.0M
20260417T00Z_MSC_GDPS_UVIndex_Sfc_LatLon0.15_PT041H.grib2 2026-04-17 04:49 1.5M
20260417T00Z_MSC_GDPS_UpwardLongwaveRadiationFlux_NTAtm_LatLon0.15_PT041H.grib2 2026-04-17 03:57 837K
20260417T00Z_MSC_GDPS_WindDir_AGL-10m_LatLon0.15_PT041H.grib2 2026-04-17 03:57 1.4M
20260417T00Z_MSC_GDPS_WindDir_AGL-120m_LatLon0.15_PT041H.grib2 2026-04-17 03:57 1.4M
20260417T00Z_MSC_GDPS_WindDir_AGL-40m_LatLon0.15_PT041H.grib2 2026-04-17 03:57 1.4M
20260417T00Z_MSC_GDPS_WindDir_AGL-80m_LatLon0.15_PT041H.grib2 2026-04-17 03:57 1.4M
20260417T00Z_MSC_GDPS_WindDir_IsbL-0700_LatLon0.15_PT041H.grib2 2026-04-17 03:57 1.6M
20260417T00Z_MSC_GDPS_WindGust-Max_AGL-10m_LatLon0.15_PT041H.grib2 2026-04-17 03:57 2.2M
20260417T00Z_MSC_GDPS_WindGust-Min_AGL-10m_LatLon0.15_PT041H.grib2 2026-04-17 03:57 2.2M
20260417T00Z_MSC_GDPS_WindGust_AGL-10m_LatLon0.15_PT041H.grib2 2026-04-17 03:57 2.1M
20260417T00Z_MSC_GDPS_WindSpeed_AGL-10m_LatLon0.15_PT041H.grib2 2026-04-17 03:57 1.1M
20260417T00Z_MSC_GDPS_WindSpeed_AGL-120m_LatLon0.15_PT041H.grib2 2026-04-17 03:57 1.2M
20260417T00Z_MSC_GDPS_WindSpeed_AGL-40m_LatLon0.15_PT041H.grib2 2026-04-17 03:57 1.2M
20260417T00Z_MSC_GDPS_WindSpeed_AGL-80m_LatLon0.15_PT041H.grib2 2026-04-17 03:57 1.2M
20260417T00Z_MSC_GDPS_WindSpeed_IsbL-0700_LatLon0.15_PT041H.grib2 2026-04-17 03:57 1.5M
20260417T00Z_MSC_GDPS_WindU_AGL-10m_LatLon0.15_PT041H.grib2 2026-04-17 03:57 1.3M
20260417T00Z_MSC_GDPS_WindU_AGL-120m_LatLon0.15_PT041H.grib2 2026-04-17 03:57 1.0M
20260417T00Z_MSC_GDPS_WindU_AGL-40m_LatLon0.15_PT041H.grib2 2026-04-17 03:57 1.0M
20260417T00Z_MSC_GDPS_WindU_AGL-80m_LatLon0.15_PT041H.grib2 2026-04-17 03:57 1.0M
20260417T00Z_MSC_GDPS_WindU_IsbL-0700_LatLon0.15_PT041H.grib2 2026-04-17 03:57 1.2M
20260417T00Z_MSC_GDPS_WindV_AGL-10m_LatLon0.15_PT041H.grib2 2026-04-17 03:57 1.6M
20260417T00Z_MSC_GDPS_WindV_AGL-120m_LatLon0.15_PT041H.grib2 2026-04-17 03:57 1.0M
20260417T00Z_MSC_GDPS_WindV_AGL-40m_LatLon0.15_PT041H.grib2 2026-04-17 03:57 1.0M
20260417T00Z_MSC_GDPS_WindV_AGL-80m_LatLon0.15_PT041H.grib2 2026-04-17 03:57 1.0M
20260417T00Z_MSC_GDPS_WindV_IsbL-0700_LatLon0.15_PT041H.grib2 2026-04-17 03:57 1.2M